Location: Bosdarros
(43.2167°N, 0.3667°W)
Time: 16:17:02
(UTC+00:00)

Meteor 2-21 - Pass Details

Date: 22 April 2021
Orbit: 933 x 967 km, 82.5° (Epoch: 12 May)

Event Time Altitude Azimuth Distance (km) Brightness Sun altitude
Rises 20:21:03 0° 353° (N) 3,601 8.1 -15.2°
Reaches altitude 10° 20:23:33 10° 355° (N) 2,655 7.3 -15.6°
Maximum altitude 20:29:36 74° 81° (E) 976 4.4 -16.5°
Enters shadow 20:34:06 19° 164° (SSE) 2,079 5.8 -17.2°
